Location: Poughquag
(41.6090°N, 73.6820°W)
Time: 02:36:59
(UTC-04:00)

Transit 2A Rocket - Pass Details

Date: 03 June 2020
Orbit: 584 x 919 km, 66.7° (Epoch: 06 July)

Event Time Altitude Azimuth Distance (km) Brightness Sun altitude
Rises 08:06:04 0° 322° (NW) 3,535 8.2 28.0°
Reaches altitude 10° 08:08:43 10° 315° (NW) 2,608 7.5 28.5°
Maximum altitude 08:14:20 39° 249° (WSW) 1,347 6.1 29.6°
Drops below altitude 10° 08:19:53 10° 183° (S) 2,574 7.7 30.6°
Sets 08:22:30 0° 175° (S) 3,483 8.4 31.1°
